User: anonymous   Login
Location: Lake Arresoe
(56.0000°N, 12.5000°E)
Time: 18:55:43
(UTC+01:00)
Language:

ISS - Orbit

View from above orbital plane
View from above orbital plane
View from above satellite
View from above satellite

Ground track
Ground track

The orbit data is extracted from the following two-line orbital elements,

1 25544U 98067A   21335.35520000  .00004502  00000-0  90688-4 0  9995
2 25544  51.6443 236.1446 0004335 264.8749 203.6521 15.48720557314502
Epoch (UTC): 01 December 2021 08:31:29
Eccentricity: 0.0004335
inclination: 51.6443°
perigee height: 417 km
apogee height: 423 km
right ascension of ascending node: 236.1446°
argument of perigee: 264.8749°
revolutions per day: 15.48720557
mean anomaly at epoch: 203.6521°
orbit number at epoch: 31450

The dashed part of the orbit path shows where the satellite is in the earth's shadow,  

DLR